This is the latest recevied weather packets stored in our database for station/object SV1JSO-13. If no packets are shown the sender has not sent any weather packets the latest 10 day(s).
| Time | Temp. | Humidity | Pressure | Rain* | Wind** | Luminosity | Snow |
|---|---|---|---|---|---|---|---|
| 1787878200 | 28.33° C | 62% | 1009.1 hPa | 0 mm | - | 0 W/m² | - |
| 1787877900 | 28.89° C | 56% | 1009.2 hPa | 0 mm | - | 0 W/m² | - |
| 1787877600 | 28.89° C | 56% | 1009.1 hPa | 0 mm | - | 0 W/m² | - |
| 1787877300 | 28.33° C | 56% | 1009.3 hPa | 0 mm | - | 0 W/m² | - |
| 1787877000 | 28.33° C | 61% | 1009.1 hPa | 0 mm | - | 0 W/m² | - |
| 1787876700 | 28.33° C | 61% | 1009 hPa | 0 mm | - | 0 W/m² | - |
| 1787876400 | 28.33° C | 61% | 1009.1 hPa | 0 mm | - | 0 W/m² | - |
| 1787876100 | 28.33° C | 61% | 1009.1 hPa | 0 mm | - | 0 W/m² | - |
| 1787875800 | 28.33° C | 61% | 1009 hPa | 0 mm | - | 0 W/m² | - |
| 1787875500 | 28.33° C | 61% | 1009.1 hPa | 0 mm | - | 0 W/m² | - |
| 1787875200 | 28.33° C | 59% | 1009 hPa | 0 mm | - | 0 W/m² | - |
| 1787874900 | 28.33° C | 60% | 1009 hPa | 0 mm | - | 0 W/m² | - |
| 1787874600 | 28.33° C | 61% | 1009.1 hPa | 0 mm | - | 0 W/m² | - |
| 1787874300 | 28.33° C | 61% | 1009 hPa | 0 mm | - | 0 W/m² | - |
| 1787874000 | 28.33° C | 60% | 1009 hPa | 0 mm | - | 0 W/m² | - |
| 1787873700 | 28.33° C | 61% | 1009.1 hPa | 0 mm | - | 0 W/m² | - |
| 1787873400 | 28.33° C | 62% | 1009.3 hPa | 0 mm | - | 0 W/m² | - |
| 1787873100 | 28.33° C | 62% | 1009.1 hPa | 0 mm | - | 0 W/m² | - |
| 1787872801 | 28.33° C | 61% | 1009.1 hPa | 0 mm | - | 0 W/m² | - |
| 1787872500 | 28.33° C | 61% | 1009.2 hPa | 0 mm | - | 0 W/m² | - |
| 1787872200 | 28.33° C | 61% | 1009.3 hPa | 0 mm | - | 0 W/m² | - |
| 1787871900 | 28.89° C | 60% | 1009.3 hPa | 0 mm | - | 0 W/m² | - |
| 1787871600 | 28.33° C | 60% | 1009.4 hPa | 0 mm | - | 0 W/m² | - |
| 1787871300 | 28.33° C | 60% | 1009.3 hPa | 0 mm | - | 0 W/m² | - |
| 1787871000 | 28.33° C | 60% | 1009.6 hPa | 0 mm | - | 0 W/m² | - |
* Rain latest hour (hover to see other rain measurements)
** Current wind speed in m/s (hover to see current wind gust speed)